[[{"header":{"parameterUnit":"m.s-1","parameterCategory":1,"la1":30.2991,"la2":30.254,"lo1":-89.0895,"lo2":-89.0444,"dy":0.0017,"dx":0.0017,"nx":28,"ny":28,"refTime":"2024-06-09T21:00:00:Z","depth":0,"parameterNumber":2,"parameterNumberName":"U-component_of_WINDS"},"data":[0,0,0,0,0,0,0,0,0,0,0,0,0,0,0,0,0,0,0,0,0,0,0,0,0,0,0,0,0,0,0,0,0,0,0,0,0,0,0,0,0,0,0,0,0,0,0,0,0,0,0,0,0,0,0,0,0,0,-1.5906,-1.5905,0,-1.584,-1.5839,-1.5838,-1.575,-1.5749,-1.5747,-1.5746,-1.568,-1.568,-1.5679,0,0,0,0,0,0,0,0,0,0,0,0,0,-1.5959,-1.5959,-1.5906,-1.5905,-1.5904,-1.584,-1.5839,-1.5838,-1.5751,-1.5749,-1.5747,-1.5745,-1.568,-1.568,-1.5679,0,0,0,0,0,0,0,0,0,0,0,0,0,-1.5919,-1.5958,-1.5906,-1.5853,-1.5847,-1.584,-1.5839,-1.5838,-1.5751,-1.5749,-1.5747,-1.5745,-1.568,-1.568,-1.5679,-1.5719,0,0,-1.5677,-1.5677,0,0,0,0,0,0,0,0,-1.5921,-1.5917,-1.5862,-1.5857,-1.585,-1.5801,-1.5833,-1.5798,-1.5752,-1.5788,-1.5746,-1.5743,-1.5722,-1.5718,-1.571,-1.5716,-1.5713,-1.5677,-1.5677,-1.5677,-1.5676,0,0,0,0,0,0,0,-1.5924,-1.5919,-1.588,-1.5861,-1.5854,-1.5833,-1.5825,-1.5826,-1.5768,-1.5784,-1.5778,-1.5771,-1.5719,-1.5711,-1.5708,-1.5712,-1.5677,-1.5677,-1.5676,-1.5676,-1.5751,-1.5753,0,0,0,0,0,0,-1.5935,-1.5922,-1.5882,-1.5878,-1.5881,-1.5834,-1.5825,-1.5819,-1.5768,-1.5758,-1.5773,-1.5767,-1.5713,-1.5709,-1.5706,-1.5752,-1.5677,-1.5676,-1.5676,-1.5749,-1.5752,-1.5754,0,0,0,0,0,0,-1.5936,-1.5932,-1.5885,-1.5898,-1.5891,-1.5835,-1.583,-1.5819,-1.5811,-1.5759,-1.5749,-1.5776,-1.5711,-1.5706,-1.5717,-1.5748,-1.5676,-1.5675,-1.5746,-1.575,-1.5753,-1.5843,0,0,0,0,0,0,-1.5938,-1.5933,-1.5947,-1.5899,-1.589,-1.5897,-1.5831,-1.5819,-1.581,-1.5802,-1.5759,-1.575,-1.5709,-1.5719,-1.5717,-1.5746,-1.5675,-1.5743,-1.5748,-1.5752,-1.5837,-1.5849,-1.586,0,0,0,0,0,-1.594,-1.5975,-1.5948,-1.5944,-1.5907,-1.5899,-1.5894,-1.5846,-1.5813,-1.5828,-1.5794,-1.5751,-1.5745,-1.572,-1.5717,-1.5747,-1.5741,-1.5746,-1.5751,-1.5832,-1.5847,-1.5859,0,0,0,0,0,0,-1.6027,-1.5967,-1.5937,-1.5957,-1.5934,-1.5884,-1.59,-1.5862,-1.5848,-1.5841,-1.5783,-1.5774,-1.5793,-1.577,-1.5744,-1.5785,-1.5736,-1.5742,-1.5799,-1.5813,-1.5824,-1.583,-1.5674,0,0,0,0,0,-1.6049,-1.6047,-1.5995,-1.6017,-1.6007,-1.5956,-1.5951,-1.5916,-1.589,-1.5879,-1.5847,-1.5823,-1.5816,-1.5813,-1.5803,-1.5833,-1.5824,-1.5852,-1.5863,-1.5873,-1.5879,-1.5896,-1.5909,-1.5771,-1.5771,-1.5771,0,0,-1.6093,-1.606,-1.6063,-1.6034,-1.6012,-1.6013,-1.5948,-1.5951,-1.5951,-1.588,-1.5889,-1.5864,-1.5834,-1.5856,-1.5864,-1.5838,-1.5914,-1.588,-1.5888,-1.5888,-1.5903,-1.5916,-1.5928,-1.5775,-1.5774,-1.5774,0,0,-1.6175,-1.6149,-1.6166,-1.6146,-1.6113,-1.6079,-1.6083,-1.6039,-1.6021,-1.6028,-1.5976,-1.5976,-1.5963,-1.5945,-1.5935,-1.6012,-1.5973,-1.601,-1.607,-1.6088,-1.6099,-1.6108,-1.6138,-1.615,-1.6016,-1.6016,-1.6016,0,-1.6235,-1.6233,-1.618,-1.6187,-1.6177,-1.6112,-1.6131,-1.6113,-1.6079,-1.6075,-1.6046,-1.6032,-1.6007,-1.6025,-1.6044,-1.6036,-1.6041,-1.6016,-1.6101,-1.611,-1.6118,-1.6146,-1.6158,-1.6021,-1.602,-1.602,-1.6019,0,-1.6309,-1.6309,-1.6327,-1.6297,-1.6288,-1.6301,-1.6251,-1.625,-1.6216,-1.6186,-1.6196,-1.6164,-1.6148,-1.6149,-1.6116,-1.6163,-1.6149,-1.6111,-1.6062,-1.6137,-1.6163,-1.6173,-1.6028,-1.6026,-1.6025,-1.6024,0,0,-1.6445,-1.6386,-1.6394,-1.638,-1.634,-1.6339,-1.635,-1.6334,-1.6335,-1.6314,-1.6323,-1.6315,-1.6281,-1.6269,-1.6233,-1.6248,-1.6316,-1.6209,-1.6208,-1.6233,-1.6369,-1.64,-1.6413,-1.6289,-1.629,-1.6292,-1.6373,0,-1.6521,-1.6535,-1.6489,-1.6515,-1.6516,-1.6455,-1.6465,-1.6442,-1.6414,-1.6412,-1.6381,-1.6378,-1.6331,-1.6324,-1.6336,-1.6305,-1.6343,-1.6298,-1.6299,-1.6299,-1.6311,-1.6426,-1.6457,-1.6535,-1.6382,-1.6384,-1.6385,0,-1.6612,-1.6597,-1.6624,-1.6584,-1.6583,-1.6592,-1.6575,-1.6573,-1.6547,-1.6525,-1.6513,-1.6472,-1.6481,-1.6433,-1.6446,-1.6417,-1.6414,-1.6399,-1.6401,-1.6401,-1.6349,-1.6432,-1.6559,-1.6572,-1.64,-1.6399,-1.6398,0,-1.6712,-1.6698,-1.6713,-1.6702,-1.6656,-1.6665,-1.6646,-1.6617,-1.6612,-1.6597,-1.6594,-1.658,-1.6574,-1.6565,-1.6523,-1.6491,-1.6542,-1.6489,-1.6527,-1.6529,-1.6543,-1.6543,-1.6674,-1.6537,-1.6537,-1.6536,-1.6536,0,-1.6803,-1.6823,-1.6757,-1.6767,-1.6788,-1.6735,-1.6757,-1.6732,-1.6708,-1.6713,-1.6659,-1.6665,-1.6606,-1.6607,-1.6573,-1.6591,-1.6588,-1.6573,-1.6564,-1.6579,-1.6582,-1.6578,-1.6573,-1.6539,-1.6539,-1.6538,-1.6538,0,-1.6919,-1.6875,-1.6888,-1.6844,-1.6833,-1.6851,-1.6813,-1.6821,-1.679,-1.6797,-1.6796,-1.6748,-1.6746,-1.6701,-1.6689,-1.6667,-1.67,-1.6679,-1.6709,-1.6704,-1.6745,-1.6743,-1.6881,-1.6897,-1.6748,-1.6749,-1.675,0,-1.6982,-1.6995,-1.6953,-1.6952,-1.6936,-1.6935,-1.693,-1.6878,-1.6875,-1.6847,-1.686,-1.6853,-1.6845,-1.6844,-1.6809,-1.68,-1.6781,-1.683,-1.678,-1.6795,-1.6786,-1.6787,-1.6789,-1.6842,-1.6843,-1.6845,-1.6846,0,-1.7098,-1.7077,-1.707,-1.7057,-1.7052,-1.7039,-1.7023,-1.7026,-1.6969,-1.6969,-1.6966,-1.696,-1.6948,-1.6943,-1.6928,-1.691,-1.6871,-1.6862,-1.6871,-1.6888,-1.6906,-1.69,-1.6741,-1.686,-1.6858,-1.6857,-1.6857,-1.6856,-1.7191,-1.7202,-1.7174,-1.717,-1.7152,-1.7139,-1.7145,-1.7115,-1.7112,-1.7098,-1.7068,-1.7071,-1.7046,-1.7022,-1.7008,-1.701,-1.6986,-1.6998,-1.7001,-1.7006,-1.7016,-1.6903,-1.7007,-1.7007,-1.7006,-1.7006,-1.7005,0,-1.7308,-1.7287,-1.7283,-1.7263,-1.726,-1.7221,-1.7202,-1.7203,-1.7206,-1.7186,-1.718,-1.7178,-1.7173,-1.7138,-1.713,-1.7139,-1.7121,-1.7139,-1.7139,-1.7136,-1.7036,-1.7031,-1.7154,-1.7154,-1.7154,-1.7154,-1.7154,-1.7154,-1.7368,-1.7385,-1.7361,-1.7369,-1.7348,-1.735,-1.7343,-1.7332,-1.7316,-1.7316,-1.7312,-1.7289,-1.7264,-1.7254,-1.7249,-1.7239,-1.724,-1.7265,-1.7249,-1.7157,-1.7143,-1.7129,-1.7124,-1.7265,-1.7265,-1.7349,-1.735,-1.735]},{"header":{"parameterUnit":"m.s-1","parameterCategory":1,"la1":30.2991,"la2":30.254,"lo1":-89.0895,"lo2":-89.0444,"dy":0.0017,"dx":0.0017,"nx":28,"ny":28,"refTime":"2024-06-09T21:00:00:Z","depth":0,"parameterNumber":3,"parameterNumberName":"V-component_of_WINDS"},"data":[0,0,0,0,0,0,0,0,0,0,0,0,0,0,0,0,0,0,0,0,0,0,0,0,0,0,0,0,0,0,0,0,0,0,0,0,0,0,0,0,0,0,0,0,0,0,0,0,0,0,0,0,0,0,0,0,0,0,2.1335,2.1335,0,2.1319,2.1319,2.1318,2.1261,2.1259,2.1258,2.1257,2.1238,2.1239,2.124,0,0,0,0,0,0,0,0,0,0,0,0,0,2.1315,2.1316,2.1335,2.1335,2.1335,2.1319,2.1319,2.1318,2.1261,2.1259,2.1258,2.1256,2.1238,2.1239,2.124,0,0,0,0,0,0,0,0,0,0,0,0,0,2.1314,2.1316,2.1335,2.1304,2.1301,2.1319,2.1318,2.1318,2.1261,2.1259,2.1257,2.1255,2.1238,2.1239,2.124,2.1286,0,0,2.1243,2.1244,0,0,0,0,0,0,0,0,2.1314,2.1315,2.1309,2.1307,2.1303,2.129,2.1305,2.1307,2.1262,2.1276,2.1257,2.1254,2.1257,2.1256,2.1257,2.1285,2.1284,2.1243,2.1244,2.1244,2.1245,0,0,0,0,0,0,0,2.1314,2.1315,2.1329,2.1309,2.1306,2.129,2.1288,2.1305,2.1278,2.1275,2.1271,2.127,2.1255,2.1256,2.1257,2.1284,2.1243,2.1244,2.1245,2.1245,2.1343,2.1345,0,0,0,0,0,0,2.1319,2.1316,2.1329,2.1328,2.1304,2.1292,2.129,2.1296,2.1277,2.1273,2.1271,2.1267,2.1256,2.1255,2.1256,2.1304,2.1244,2.1245,2.1246,2.1341,2.1344,2.1346,0,0,0,0,0,0,2.1319,2.1321,2.133,2.1321,2.1321,2.1295,2.1302,2.1297,2.1298,2.1275,2.1269,2.1278,2.1254,2.1254,2.1278,2.1303,2.1246,2.1247,2.1339,2.1342,2.1345,2.1403,0,0,0,0,0,0,2.1318,2.1321,2.1339,2.1322,2.1321,2.1353,2.1304,2.1298,2.13,2.1294,2.1279,2.1275,2.1253,2.1276,2.1279,2.1303,2.1248,2.1336,2.134,2.1344,2.1399,2.1408,2.1416,0,0,0,0,0,2.1318,2.1356,2.134,2.1342,2.1343,2.1355,2.1354,2.1328,2.1303,2.1319,2.1304,2.1275,2.1301,2.1279,2.1281,2.1307,2.1335,2.1339,2.1344,2.1395,2.1406,2.1416,0,0,0,0,0,0,2.1377,2.1354,2.1335,2.1369,2.1364,2.1345,2.1365,2.1341,2.1343,2.1337,2.1305,2.1302,2.1329,2.1321,2.1297,2.1348,2.1313,2.1318,2.1351,2.1362,2.137,2.1369,2.1249,0,0,0,0,0,2.1394,2.1406,2.1385,2.1417,2.1416,2.1391,2.1395,2.1376,2.1369,2.1366,2.1353,2.1347,2.1353,2.1358,2.1362,2.1399,2.1393,2.1417,2.1426,2.1433,2.1436,2.1451,2.146,2.136,2.136,2.136,0,0,2.1429,2.1418,2.1428,2.1429,2.1423,2.1434,2.139,2.1405,2.1412,2.1369,2.1388,2.1379,2.137,2.1399,2.1412,2.1393,2.1463,2.1438,2.1444,2.1443,2.1456,2.1466,2.1474,2.1363,2.1363,2.1362,0,0,2.1498,2.1493,2.1517,2.1512,2.1503,2.1486,2.1492,2.1476,2.1467,2.1488,2.1454,2.1463,2.1475,2.1469,2.1467,2.1533,2.1506,2.1536,2.1578,2.1593,2.1601,2.1607,2.1627,2.1635,2.1541,2.1541,2.1541,0,2.1542,2.1559,2.1532,2.1548,2.1548,2.151,2.1533,2.1529,2.1523,2.1523,2.1503,2.1516,2.1508,2.1533,2.1549,2.1551,2.1554,2.1536,2.1602,2.1609,2.1614,2.1632,2.164,2.1544,2.1544,2.1544,2.1543,0,2.1612,2.1624,2.1645,2.1638,2.1641,2.1661,2.1636,2.1642,2.1623,2.1608,2.1627,2.1616,2.1616,2.1622,2.1603,2.1644,2.1632,2.1608,2.1571,2.1628,2.1644,2.1651,2.1549,2.1548,2.1547,2.1546,0,0,2.1715,2.1693,2.1701,2.1696,2.1683,2.1691,2.1709,2.1709,2.1713,2.1711,2.1722,2.1733,2.171,2.1709,2.1689,2.1703,2.1751,2.1677,2.1676,2.1687,2.179,2.1805,2.1814,2.1734,2.1736,2.1737,2.1789,0,2.1776,2.1804,2.178,2.1812,2.1821,2.1785,2.18,2.1793,2.178,2.1784,2.177,2.1776,2.1748,2.1746,2.1759,2.1742,2.177,2.1739,2.1742,2.1742,2.174,2.1823,2.1839,2.189,2.1796,2.1797,2.1798,0,2.1851,2.185,2.1883,2.1866,2.1868,2.1882,2.1879,2.1885,2.1876,2.1866,2.1864,2.184,2.1854,2.1821,2.1839,2.1818,2.1818,2.181,2.1812,2.1807,2.177,2.1817,2.1906,2.1911,2.1809,2.1808,2.1807,0,2.1917,2.1925,2.1944,2.1942,2.1924,2.1934,2.1927,2.1916,2.1917,2.1914,2.1914,2.1914,2.1913,2.1913,2.1888,2.1868,2.1908,2.1874,2.1896,2.1897,2.1903,2.1902,2.1988,2.1911,2.1911,2.191,2.191,0,2.1985,2.2005,2.1973,2.1984,2.2005,2.1978,2.1999,2.1989,2.1979,2.1987,2.1958,2.1965,2.1935,2.1939,2.1921,2.1936,2.1937,2.1927,2.192,2.1927,2.1927,2.1923,2.1917,2.1912,2.1912,2.1912,2.1911,0,2.2061,2.204,2.2058,2.204,2.2036,2.2051,2.2035,2.2044,2.2029,2.2039,2.204,2.2016,2.2019,2.1997,2.1996,2.1984,2.2006,2.1996,2.2008,2.2003,2.2025,2.2022,2.2109,2.2117,2.2038,2.2039,2.204,0,2.2103,2.2117,2.21,2.2103,2.2097,2.2103,2.2104,2.2078,2.2079,2.207,2.2079,2.208,2.2079,2.2085,2.2067,2.2066,2.2053,2.2084,2.2053,2.2058,2.2049,2.2046,2.2046,2.2089,2.209,2.2091,2.2092,0,2.2179,2.2168,2.217,2.2168,2.217,2.2167,2.2162,2.2167,2.2138,2.2141,2.2144,2.2143,2.2142,2.2142,2.2137,2.2129,2.2104,2.2102,2.2106,2.2111,2.2115,2.2109,2.2021,2.2099,2.2099,2.2098,2.2098,2.2097,2.2236,2.2246,2.2235,2.2237,2.2231,2.2227,2.2234,2.222,2.2222,2.2219,2.2204,2.2209,2.2198,2.2189,2.2182,2.2185,2.217,2.2177,2.2178,2.2179,2.2181,2.2119,2.2184,2.2184,2.2184,2.2184,2.2184,0,2.2307,2.2298,2.2301,2.2295,2.2297,2.2276,2.2269,2.2271,2.2276,2.2268,2.2268,2.227,2.227,2.2252,2.2249,2.2254,2.2243,2.2254,2.2251,2.2249,2.2197,2.2192,2.2263,2.2263,2.2263,2.2263,2.2263,2.2263,2.2344,2.2358,2.2346,2.2356,2.2347,2.2351,2.2349,2.2345,2.2338,2.2341,2.2341,2.233,2.2318,2.2314,2.2312,2.2307,2.2305,2.2319,2.231,2.2261,2.2253,2.2246,2.224,2.232,2.232,2.2361,2.2361,2.2361]}]]